Elefsis, Greece

10:56 AM EET on February 23, 2018 (GMT +0200)
Elefsis Air Base

Weather History for LGEL - February, 2013

Change the Weather History Date:

Friday, February 8, 2013

  Actual Average Record
Temperature  
Mean Temperature 50 °F -  
Max Temperature 57 °F 56 °F 66 °F (2004)
Min Temperature 42 °F 40 °F 30 °F (2006)
Degree Days  
Heating Degree Days 16    
Moisture  
Dew Point 40 °F    
Average Humidity 69    
Maximum Humidity 87    
Minimum Humidity 51    
Precipitation  
Precipitation 0.00 in - - ()
Sea Level Pressure  
Sea Level Pressure 29.61 in    
Wind  
Wind Speed 3 mph ()    
Max Wind Speed 9 mph    
Max Gust Speed -    
Visibility 6.2 miles    
Events      
Averages and records for this station are not official NWS values.
T = Trace of Precipitation, MM = Missing Value Source: Averaged Metar Reports

Daily Weather History Graph

Daily Weather History Graph

Search for Another Location

Airport or City:

Trip Planner

Search our weather history database for the weather conditions in past years. The results will help you decide how hot, cold, wet, or windy it might be!

Date:

Astronomy

Feb. 08, 2013 Rise Set
Actual Time 7:23 AM EET 5:56 PM EET
Civil Twilight 6:56 AM EET 6:24 PM EET
Nautical Twilight 6:25 AM EET 6:55 PM EET
Astronomical Twilight 5:54 AM EET 7:26 PM EET
Moon 5:36 AM EET (2/8) 4:09 PM EET (2/8)
Length of Visible Light 11h 27m
Length of Day
10h 32m
Waning Crescent, 5% of the Moon is Illuminated
Feb 8
Waning Crescent
Feb 10
New
Feb 17
First Quarter
Feb 25
Full
Mar 4
Last Quarter

Hourly Weather History & Observations

Time (EET) Temp. Windchill Dew Point Humidity Pressure Visibility Wind Dir Wind Speed Gust Speed Precip Events Conditions
12:50 AM 51.8 °F - 44.6 °F 76% 29.53 in 6.2 mi Calm Calm - N/A   Scattered Clouds
1:50 AM 53.6 °F - 42.8 °F 67% 29.53 in 6.2 mi SSW 8.1 mph - N/A   Scattered Clouds
2:50 AM 51.8 °F - 41.0 °F 67% 29.53 in 6.2 mi Calm Calm - N/A   Scattered Clouds
3:50 AM 51.8 °F - 39.2 °F 62% 29.53 in 6.2 mi SW 5.8 mph - N/A   Partly Cloudy
4:50 AM 50.0 °F - 39.2 °F 66% 29.56 in 6.2 mi West 5.8 mph - N/A   Partly Cloudy
5:20 AM 48.2 °F - 37.4 °F 66% 29.56 in 6.2 mi NNW 3.5 mph - N/A   Partly Cloudy
5:50 AM 44.6 °F 41.4 °F 39.2 °F 81% 29.56 in 6.2 mi NW 5.8 mph - N/A   Partly Cloudy
6:20 AM 44.6 °F 43.1 °F 39.2 °F 81% 29.56 in 6.2 mi East 3.5 mph - N/A   Partly Cloudy
6:50 AM 42.8 °F 40.1 °F 39.2 °F 87% 29.56 in 6.2 mi North 4.6 mph - N/A   Scattered Clouds
7:20 AM 42.8 °F - 39.2 °F 87% 29.56 in 6.2 mi Calm Calm - N/A   Scattered Clouds
7:50 AM 42.8 °F - 39.2 °F 87% 29.59 in 6.2 mi Calm Calm - N/A   Partly Cloudy
8:20 AM 42.8 °F - 39.2 °F 87% 29.59 in 6.2 mi Calm Calm - N/A   Partly Cloudy
8:50 AM 44.6 °F - 39.2 °F 81% 29.59 in 6.2 mi Calm Calm - N/A   Partly Cloudy
9:20 AM 50.0 °F - 42.8 °F 76% 29.59 in 6.2 mi Calm Calm - N/A   Partly Cloudy
9:50 AM 55.4 °F - 42.8 °F 63% 29.59 in 6.2 mi Calm Calm - N/A   Partly Cloudy
10:20 AM 55.4 °F - 39.2 °F 54% 29.59 in 6.2 mi Calm Calm - N/A   Partly Cloudy
10:50 AM 55.4 °F - 39.2 °F 54% 29.59 in 6.2 mi SSE 5.8 mph - N/A   Partly Cloudy
11:20 AM 55.4 °F - 39.2 °F 54% 29.59 in 6.2 mi SSE 5.8 mph - N/A   Partly Cloudy
11:50 AM 55.4 °F - 41.0 °F 58% 29.59 in 6.2 mi South 4.6 mph - N/A   Mostly Cloudy
12:50 PM 55.4 °F - 41.0 °F 58% 29.59 in 6.2 mi SW 5.8 mph - N/A   Mostly Cloudy
1:20 PM 55.4 °F - 41.0 °F 58% 29.59 in 6.2 mi SSW 6.9 mph - N/A   Mostly Cloudy
1:50 PM 57.2 °F - 41.0 °F 55% 29.59 in 6.2 mi SSW 8.1 mph - N/A   Scattered Clouds
2:20 PM 57.2 °F - 39.2 °F 51% 29.59 in 6.2 mi SSW 9.2 mph - N/A   Scattered Clouds
2:50 PM 57.2 °F - 41.0 °F 55% 29.59 in 6.2 mi SW 6.9 mph - N/A   Partly Cloudy
3:20 PM 55.4 °F - 41.0 °F 58% 29.59 in 6.2 mi SW 8.1 mph - N/A   Partly Cloudy
3:50 PM 57.2 °F - 41.0 °F 55% 29.59 in 6.2 mi WNW 5.8 mph - N/A   Scattered Clouds
4:20 PM 57.2 °F - 41.0 °F 55% 29.59 in 6.2 mi WNW 6.9 mph - N/A   Scattered Clouds
4:50 PM 55.4 °F - 41.0 °F 58% 29.62 in 6.2 mi WSW 6.9 mph - N/A   Partly Cloudy
5:20 PM 53.6 °F - 41.0 °F 62% 29.62 in 6.2 mi WSW 4.6 mph - N/A   Partly Cloudy
5:50 PM 53.6 °F - 41.0 °F 62% 29.65 in 6.2 mi Calm Calm - N/A   Partly Cloudy
6:20 PM 51.8 °F - 41.0 °F 67% 29.65 in 6.2 mi Calm Calm - N/A   Scattered Clouds
6:50 PM 50.0 °F - 41.0 °F 71% 29.68 in 6.2 mi Calm Calm - N/A   Scattered Clouds
7:20 PM 50.0 °F - 41.0 °F 71% 29.68 in 6.2 mi Calm Calm - N/A   Scattered Clouds
7:50 PM 48.2 °F - 41.0 °F 76% 29.68 in 6.2 mi Calm Calm - N/A   Partly Cloudy
8:20 PM 46.4 °F 43.5 °F 41.0 °F 81% 29.68 in 6.2 mi SW 5.8 mph - N/A   Partly Cloudy
8:50 PM 48.2 °F - 39.2 °F 71% 29.71 in 6.2 mi South 4.6 mph - N/A   Partly Cloudy
9:20 PM 46.4 °F - 39.2 °F 76% 29.71 in 6.2 mi Calm Calm - N/A   Partly Cloudy
9:50 PM 44.6 °F 42.2 °F 39.2 °F 81% 29.71 in 6.2 mi North 4.6 mph - N/A   Partly Cloudy
10:20 PM 44.6 °F - 39.2 °F 81% 29.74 in - Calm Calm - N/A   Clear
10:50 PM 42.8 °F 40.1 °F 39.2 °F 87% 29.74 in - NNW 4.6 mph - N/A   Clear
11:50 PM 42.8 °F - 37.4 °F 81% 29.77 in - Calm Calm - N/A   Clear